COSMOS 2251 DEB

Satellite information

Favourite Embed

Satellite Type and Status

DEBRISIN ORBIT

Key statistics

Satellite COSMOS 2251 DEB at a glance.

Uptime

11868

Days in orbit

Revolutions

≈ 14.1

Per day

Orbit

LEO

Low Earth Orbit

Inclination

74.1

Latest

Satellite identification and parameters

Extended collection of information and parameters for COSMOS 2251 DEB.

Object identification

Identified? True

Debris? True

Object name: COSMOS 2251 DEB

International designator: 1993-036BPK

Object number (NORAD): 37960

Object ID (CCSDS): 37960

Country: COMMONWEALTH OF INDEPENDENT STATES (CIS)

Current information (Y/N): Y

RCS size: SMALL

Orbital parameters

Period: 102.283 minutes

Inclination: 74.0564 deg

SMA: 7244.864 km

Apoapsis: 1047.0 km

Periapsis: 686.457 km

RAAN: 187.7177 deg

Eccentricy: 0.02488265

Argument of periapsis: 206.5112 deg

Mean anomaly: 152.3125 deg

Mean motion: 14.07853439 rev/day

Mean motion (dot): 0.00002493 rev/day2

B* drag term: 0.0011181823 1/REarth

Two-line elements (TLE)

Creation date: Dec. 12, 2025, 10:14 a.m.

Reference frame: TEME

Reference center: EARTH

Epoch: Dec. 12, 2025, 6:26 a.m. UTC

TLE line 0: 0 COSMOS 2251 DEB

TLE line 1: 1 37960U 93036BPK 25346.26851955 .00002493 00000-0 11182-2 0 9990

TLE line 2: 2 37960 74.0564 187.7177 0248827 206.5112 152.3125 14.07853439773997

Live tracking on map

Real-time ground track for satellite COSMOS 2251 DEB.

In-orbit conjunctions

A list of the most updated potential collisions computed for object COSMOS 2251 DEB.

Target Orbit TCA Probability of collision Miss distance Type
ASUSAT SSO 2025-01-25 01:48:48 0.000298617 642.0 (m) PAYLOAD
THOR ABLESTAR DEB LEO 2024-11-10 14:29:41 0.0006180895 921.0 (m) DEBRIS

Associated space launch

Military communications satellite. Destroyed in a collision with Iridium 33.

COSMOS 2251 DEB was lifted into orbit during the mission ‘Kosmos-3M | Strela-2M 51’, on board a Kosmos-3M space rocket.

The launch took place on June 16, 1993, 4:17 a.m. from 132/1 (132L).

For more information about the launch, click the button.

Launch to space Kosmos-3M | Strela-2M 51
Kosmos-3M | Strela-2M 51

Agency: N/A

Status: Launch Successful

Launch date: June 16, 1993, 4:17 a.m. UTC

Rocket: Kosmos-3M

Launch pad: 132/1 (132L)

Location: Plesetsk Cosmodrome, Russian Federation

...

Latest news about this satellite

There are no fresh news available about this satellite. Check back as we update our databases every day.


Newsletter sign-up

Weekly statistics, charts and insights to help you stay on top of the space industry.